,,Stat5,,Stat1,,Stat2,,Stat3,,Stat4,,Wind1,,Wind1
time,status,PA1M_AVG,status,PR1M_SUM,status,RH1M_AVG,status,SR1M_AVG,status,TA1M_AVG,status,W1dAve1m,status,W1sAve1m
2000-07-16, 00:00:01,VALID,918.498,VALID,0,VALID,98.3726,VALID,-0.0509425,VALID,18.3919,VALID,78,VALID,0
2000-07-16, 00:01:01,VALID,918.494,VALID,0,VALID,98.3306,VALID,-0.0509425,VALID,18.415,VALID,78,VALID,0
2000-07-16, 00:02:01,VALID,918.497,VALID,0,VALID,98.2353,VALID,-0.0509425,VALID,18.3989,VALID,78,VALID,0
2000-07-16, 00:03:01,VALID,918.479,VALID,0,VALID,98.178,VALID,-0.0169808,VALID,18.3889,VALID,78,VALID,0
2000-07-16, 00:04:00,VALID,918.466,VALID,0,VALID,98.3904,VALID,-0.0169808,VALID,18.4702,VALID,77,VALID,0
2000-07-16, 00:05:00,VALID,918.454,VALID,0,VALID,98.1666,VALID,-0.0169808,VALID,18.424,VALID,68,VALID,0
2000-07-16, 00:06:00,VALID,918.439,VALID,0,VALID,98.1844,VALID,0,VALID,18.4766,VALID,61,VALID,0
2000-07-16, 00:07:00,VALID,918.45,VALID,0,VALID,98.2302,VALID,0,VALID,18.5248,VALID,58,VALID,0
2000-07-16, 00:08:00,VALID,918.443,VALID,0,VALID,98.1831,VALID,0,VALID,18.5474,VALID,58,VALID,0
2000-07-16, 00:09:00,VALID,918.428,VALID,0,VALID,98.1742,VALID,-0.0169808,VALID,18.5797,VALID,58,VALID,0
2000-07-16, 00:10:00,VALID,918.424,VALID,0,VALID,98.1246,VALID,-0.0169808,VALID,18.5765,VALID,58,VALID,0
2000-07-16, 00:11:00,VALID,918.424,VALID,0,VALID,98.0979,VALID,-0.0169808,VALID,18.5728,VALID,58,VALID,0
2000-07-16, 00:12:00,VALID,918.402,VALID,0,VALID,98.0496,VALID,0,VALID,18.577,VALID,58,VALID,0
2000-07-16, 00:13:00,VALID,918.387,VALID,0,VALID,98.0572,VALID,-0.0339617,VALID,18.583,VALID,32,VALID,0
2000-07-16, 00:14:00,VALID,918.369,VALID,0,VALID,97.7355,VALID,-0.0169808,VALID,18.5377,VALID,52,VALID,0
2000-07-16, 00:15:00,VALID,918.36,VALID,0,VALID,96.7157,VALID,0,VALID,18.3799,VALID,71,VALID,0
2000-07-16, 00:16:00,VALID,918.355,VALID,0,VALID,96.2643,VALID,-0.0339617,VALID,18.2406,VALID,86,VALID,0
2000-07-16, 00:17:00,VALID,918.35,VALID,0,VALID,96.3762,VALID,-0.0339617,VALID,18.1596,VALID,88,VALID,0
2000-07-16, 00:18:00,VALID,918.343,VALID,0,VALID,96.75,VALID,-0.0339617,VALID,18.1246,VALID,92,VALID,0
2000-07-16, 00:19:00,VALID,918.331,VALID,0,VALID,96.8836,VALID,-0.0169808,VALID,18.0826,VALID,97,VALID,0
2000-07-16, 00:20:00,VALID,918.308,VALID,0,VALID,96.853,VALID,0,VALID,18.0305,VALID,70,VALID,0
2000-07-16, 00:21:00,VALID,918.305,VALID,0,VALID,96.7767,VALID,-0.0169808,VALID,17.982,VALID,75,VALID,0
2000-07-16, 00:22:00,VALID,918.292,VALID,0,VALID,96.6648,VALID,-0.0169808,VALID,17.9437,VALID,80,VALID,0
2000-07-16, 00:23:00,VALID,918.275,VALID,0,VALID,96.9853,VALID,-0.0339617,VALID,17.9403,VALID,85,VALID,0
2000-07-16, 00:24:00,VALID,918.262,VALID,0,VALID,97.204,VALID,-0.0339617,VALID,17.9373,VALID,87,VALID,0
2000-07-16, 00:25:00,VALID,918.258,VALID,0,VALID,97.1862,VALID,0,VALID,17.9015,VALID,87,VALID,0
2000-07-16, 00:26:00,VALID,918.23,VALID,0,VALID,97.2218,VALID,-0.0169808,VALID,17.8826,VALID,87,VALID,0
2000-07-16, 00:27:00,VALID,918.222,VALID,0,VALID,97.3019,VALID,-0.0169808,VALID,17.8759,VALID,87,VALID,0
2000-07-16, 00:28:00,VALID,918.216,VALID,0,VALID,97.321,VALID,0,VALID,17.8759,VALID,87,VALID,0
2000-07-16, 00:29:00,VALID,918.204,VALID,0,VALID,97.3045,VALID,0,VALID,17.8632,VALID,87,VALID,0
2000-07-16, 00:30:00,VALID,918.197,VALID,0,VALID,97.0946,VALID,-0.0339617,VALID,17.8309,VALID,87,VALID,0
2000-07-16, 00:31:00,VALID,918.179,VALID,0,VALID,96.9789,VALID,-0.0169808,VALID,17.8058,VALID,87,VALID,0
2000-07-16, 00:32:00,VALID,918.155,VALID,0,VALID,97.2421,VALID,-0.0509425,VALID,17.7924,VALID,84,VALID,0
2000-07-16, 00:33:00,VALID,918.12,VALID,0,VALID,97.4265,VALID,-0.0679233,VALID,17.8182,VALID,88,VALID,0
2000-07-16, 00:34:00,VALID,918.095,VALID,0,VALID,97.4316,VALID,-0.0679233,VALID,17.8055,VALID,93,VALID,0
2000-07-16, 00:35:00,VALID,918.059,VALID,0,VALID,97.2345,VALID,-0.0169808,VALID,17.744,VALID,106,VALID,0
2000-07-16, 00:36:00,VALID,918.047,VALID,0,VALID,97.3095,VALID,-0.0679233,VALID,17.7313,VALID,109,VALID,0
2000-07-16, 00:37:00,VALID,918.019,VALID,0,VALID,97.6414,VALID,-0.0509425,VALID,17.7567,VALID,111,VALID,0
2000-07-16, 00:38:00,VALID,918.009,VALID,0,VALID,97.8106,VALID,-0.0509425,VALID,17.7924,VALID,111,VALID,0
2000-07-16, 00:39:00,VALID,918.022,VALID,0,VALID,97.8741,VALID,-0.0339617,VALID,17.7924,VALID,111,VALID,0
2000-07-16, 00:40:00,VALID,917.996,VALID,0,VALID,97.953,VALID,-0.0679233,VALID,17.8122,VALID,111,VALID,0
2000-07-16, 00:41:00,VALID,917.997,VALID,0,VALID,97.9301,VALID,-0.0679233,VALID,17.806,VALID,111,VALID,0
2000-07-16, 00:42:00,VALID,917.995,VALID,0,VALID,98.1005,VALID,-0.0509425,VALID,17.8247,VALID,111,VALID,0
2000-07-16, 00:43:00,VALID,917.967,VALID,0,VALID,98.1806,VALID,-0.0339617,VALID,17.8736,VALID,108,VALID,0
2000-07-16, 00:44:00,VALID,917.949,VALID,0,VALID,97.7635,VALID,-0.0679233,VALID,17.7857,VALID,101,VALID,0
2000-07-16, 00:45:00,VALID,917.935,VALID,0,VALID,97.2498,VALID,-0.0339617,VALID,17.6697,VALID,85,VALID,0
2000-07-16, 00:46:00,VALID,917.926,VALID,0,VALID,97.8729,VALID,-0.0169808,VALID,17.7209,VALID,86,VALID,0
2000-07-16, 00:47:00,VALID,917.928,VALID,0,VALID,97.7063,VALID,-0.0509425,VALID,17.6697,VALID,87,VALID,0
2000-07-16, 00:48:00,VALID,917.921,VALID,0,VALID,97.5168,VALID,-0.0509425,VALID,17.5954,VALID,87,VALID,0
2000-07-16, 00:49:00,VALID,917.926,VALID,0,VALID,97.56,VALID,0,VALID,17.556,VALID,93,VALID,0
2000-07-16, 00:50:00,VALID,917.924,VALID,0,VALID,97.9581,VALID,-0.0509425,VALID,17.6245,VALID,103,VALID,0
2000-07-16, 00:51:00,VALID,917.944,VALID,0,VALID,98.1056,VALID,-0.0169808,VALID,17.66,VALID,103,VALID,0
2000-07-16, 00:52:00,VALID,917.962,VALID,0,VALID,98.1958,VALID,-0.0339617,VALID,17.6729,VALID,103,VALID,0
2000-07-16, 00:53:00,VALID,917.951,VALID,0,VALID,98.2925,VALID,0,VALID,17.6988,VALID,99,VALID,0
2000-07-16, 00:54:00,VALID,917.944,VALID,0,VALID,98.4858,VALID,-0.0169808,VALID,17.7666,VALID,101,VALID,0
2000-07-16, 00:55:00,VALID,917.926,VALID,0,VALID,98.4654,VALID,-0.0679233,VALID,17.7827,VALID,101,VALID,0
2000-07-16, 00:56:00,VALID,917.899,VALID,0,VALID,98.4082,VALID,-0.0509425,VALID,17.7862,VALID,101,VALID,0
2000-07-16, 00:57:00,VALID,917.874,VALID,0,VALID,98.3968,VALID,-0.0849042,VALID,17.773,VALID,94,VALID,0
2000-07-16, 00:58:00,VALID,917.847,VALID,0,VALID,98.5951,VALID,-0.0169808,VALID,17.8376,VALID,111,VALID,0.147593
2000-07-16, 00:59:00,VALID,917.841,VALID,0,VALID,98.5099,VALID,-0.0339617,VALID,17.8667,VALID,120,VALID,0
2000-07-16, 01:00:00,VALID,917.852,VALID,0,VALID,98.4235,VALID,-0.0339617,VALID,17.8568,VALID,174,VALID,0.046875
2000-07-16, 01:01:00,VALID,917.848,VALID,0,VALID,98.4654,VALID,-0.0169808,VALID,17.8667,VALID,207,VALID,0.143164
2000-07-16, 01:02:00,VALID,917.85,VALID,0,VALID,98.5926,VALID,-0.0849042,VALID,17.9156,VALID,187,VALID,0.00234375
2000-07-16, 01:03:00,VALID,917.829,VALID,0,VALID,98.4044,VALID,-0.0339617,VALID,17.9244,VALID,203,VALID,0
2000-07-16, 01:04:00,VALID,917.824,VALID,0,VALID,98.262,VALID,-0.0339617,VALID,17.8987,VALID,203,VALID,0
2000-07-16, 01:05:00,VALID,917.804,VALID,0,VALID,98.1908,VALID,-0.0169808,VALID,17.8731,VALID,177,VALID,0
2000-07-16, 01:06:00,VALID,917.797,VALID,0,VALID,98.3306,VALID,-0.0679233,VALID,17.8891,VALID,178,VALID,0
2000-07-16, 01:07:00,VALID,917.789,VALID,0,VALID,98.0839,VALID,-0.0509425,VALID,17.8669,VALID,176,VALID,0
2000-07-16, 01:08:00,VALID,917.778,VALID,0,VALID,97.9441,VALID,-0.0849042,VALID,17.8344,VALID,162,VALID,0
2000-07-16, 01:09:00,VALID,917.763,VALID,0,VALID,97.7775,VALID,-0.0339617,VALID,17.8217,VALID,162,VALID,0
2000-07-16, 01:10:00,VALID,917.756,VALID,0,VALID,97.6707,VALID,-0.0679233,VALID,17.8055,VALID,162,VALID,0
2000-07-16, 01:11:00,VALID,917.748,VALID,0,VALID,97.6783,VALID,-0.0679233,VALID,17.7926,VALID,134,VALID,0
2000-07-16, 01:12:00,VALID,917.733,VALID,0,VALID,97.6452,VALID,0.0509425,VALID,17.7846,VALID,84,VALID,0
2000-07-16, 01:13:00,VALID,917.733,VALID,0,VALID,96.497,VALID,0.0509425,VALID,17.5936,VALID,86,VALID,0
2000-07-16, 01:14:00,VALID,917.719,VALID,0,VALID,97.1493,VALID,0.0339617,VALID,17.6165,VALID,81,VALID,0
2000-07-16, 01:15:00,VALID,917.701,VALID,0,VALID,97.5969,VALID,0.0679233,VALID,17.6589,VALID,89,VALID,0
2000-07-16, 01:16:00,VALID,917.664,VALID,0,VALID,98.3179,VALID,0.0169808,VALID,17.8171,VALID,92,VALID,0
2000-07-16, 01:17:00,VALID,917.645,VALID,0,VALID,98.309,VALID,0.0339617,VALID,17.846,VALID,94,VALID,0
2000-07-16, 01:18:00,VALID,917.623,VALID,0,VALID,98.192,VALID,0.0509425,VALID,17.8427,VALID,94,VALID,0
2000-07-16, 01:19:00,VALID,917.616,VALID,0,VALID,97.8868,VALID,0.0509425,VALID,17.8171,VALID,76,VALID,0
2000-07-16, 01:20:00,VALID,917.608,VALID,0,VALID,97.8449,VALID,0.0339617,VALID,17.8137,VALID,37,VALID,0
2000-07-16, 01:21:00,VALID,917.596,VALID,0,VALID,98.3853,VALID,0.0849042,VALID,17.959,VALID,340,VALID,0.0946181
2000-07-16, 01:22:00,VALID,917.584,VALID,0,VALID,98.4133,VALID,0.0679233,VALID,17.9844,VALID,288,VALID,0.0712054
2000-07-16, 01:23:00,VALID,917.557,VALID,0,VALID,98.4858,VALID,0.0679233,VALID,18.0494,VALID,300,VALID,0.0257601
2000-07-16, 01:24:00,VALID,917.536,VALID,0,VALID,98.5443,VALID,0.0679233,VALID,18.1174,VALID,302,VALID,0
2000-07-16, 01:25:00,VALID,917.517,VALID,0,VALID,98.501,VALID,0.0509425,VALID,18.1495,VALID,301,VALID,0
2000-07-16, 01:26:00,VALID,917.487,VALID,0,VALID,98.5633,VALID,0,VALID,18.2372,VALID,306,VALID,0
2000-07-16, 01:27:00,VALID,917.473,VALID,0,VALID,97.9644,VALID,0,VALID,18.1624,VALID,18,VALID,0.195536
2000-07-16, 01:28:00,VALID,917.458,VALID,0,VALID,96.7717,VALID,0.0169808,VALID,18.0819,VALID,88,VALID,0.0417352
2000-07-16, 01:29:00,VALID,917.436,VALID,0,VALID,96.7615,VALID,0,VALID,18.0685,VALID,75,VALID,0.104367
2000-07-16, 01:30:00,VALID,917.414,VALID,0,VALID,96.9942,VALID,0.0509425,VALID,18.0815,VALID,82,VALID,0.488281
2000-07-16, 01:31:00,VALID,917.388,VALID,0,VALID,96.6941,VALID,0.0509425,VALID,18.0625,VALID,99,VALID,0.267948
2000-07-16, 01:32:00,VALID,917.366,VALID,0,VALID,95.7874,VALID,0.0169808,VALID,17.9689,VALID,100,VALID,0.23522
2000-07-16, 01:33:00,VALID,917.351,VALID,0,VALID,95.5687,VALID,0.0169808,VALID,17.8854,VALID,91,VALID,0.427951
2000-07-16, 01:34:00,VALID,917.35,VALID,0,VALID,96.1549,VALID,0.0509425,VALID,17.8397,VALID,80,VALID,0.626172
2000-07-16, 01:35:00,VALID,917.341,VALID,0,VALID,96.839,VALID,0.0679233,VALID,17.8393,VALID,61,VALID,0.533008
2000-07-16, 01:36:00,VALID,917.328,VALID,0,VALID,97.3032,VALID,0,VALID,17.8782,VALID,59,VALID,0.529247
2000-07-16, 01:37:00,VALID,917.324,VALID,0,VALID,97.5473,VALID,0.0509425,VALID,17.914,VALID,54,VALID,0.335737
2000-07-16, 01:38:00,VALID,917.319,VALID,0,VALID,97.7228,VALID,0.0169808,VALID,17.9781,VALID,65,VALID,0
2000-07-16, 01:39:00,VALID,917.302,VALID,0,VALID,97.4965,VALID,0.0339617,VALID,17.9915,VALID,101,VALID,0
2000-07-16, 01:40:00,VALID,917.301,VALID,0,VALID,97.4342,VALID,0.0169808,VALID,18.0076,VALID,96,VALID,0
2000-07-16, 01:41:00,VALID,917.3,VALID,0,VALID,97.2765,VALID,0,VALID,18.0115,VALID,96,VALID,0
2000-07-16, 01:42:00,VALID,917.295,VALID,0,VALID,96.6483,VALID,-0.101885,VALID,17.958,VALID,95,VALID,0
2000-07-16, 01:43:00,VALID,917.3,VALID,0,VALID,96.8352,VALID,-0.101885,VALID,17.9806,VALID,91,VALID,0
2000-07-16, 01:44:00,VALID,917.288,VALID,0,VALID,97.2727,VALID,-0.118866,VALID,18.0288,VALID,79,VALID,0
2000-07-16, 01:45:00,VALID,917.271,VALID,0,VALID,97.1798,VALID,-0.101885,VALID,18.0521,VALID,80,VALID,0
2000-07-16, 01:46:00,VALID,917.247,VALID,0,VALID,97.0997,VALID,-0.135847,VALID,18.0551,VALID,95,VALID,0
2000-07-16, 01:47:00,VALID,917.219,VALID,0,VALID,96.9166,VALID,-0.101885,VALID,18.045,VALID,123,VALID,0
2000-07-16, 01:48:00,VALID,917.208,VALID,0,VALID,96.5542,VALID,-0.101885,VALID,18.0261,VALID,115,VALID,0
2000-07-16, 01:49:00,VALID,917.228,VALID,0,VALID,96.0926,VALID,-0.101885,VALID,17.9162,VALID,105,VALID,0
2000-07-16, 01:50:00,VALID,917.245,VALID,0,VALID,95.1809,VALID,-0.101885,VALID,17.8939,VALID,105,VALID,0
2000-07-16, 01:51:00,VALID,917.258,VALID,0,VALID,95.5865,VALID,-0.101885,VALID,17.8805,VALID,98,VALID,0
2000-07-16, 01:52:00,VALID,917.269,VALID,0,VALID,96.4995,VALID,-0.101885,VALID,17.9292,VALID,49,VALID,0
2000-07-16, 01:53:00,VALID,917.271,VALID,0,VALID,96.6025,VALID,-0.101885,VALID,17.9319,VALID,50,VALID,0
2000-07-16, 01:54:00,VALID,917.257,VALID,0,VALID,96.2058,VALID,-0.0679233,VALID,17.8934,VALID,50,VALID,0
2000-07-16, 01:55:00,VALID,917.222,VALID,0,VALID,96.6686,VALID,-0.118866,VALID,17.8805,VALID,64,VALID,0
2000-07-16, 01:56:00,VALID,917.199,VALID,0,VALID,97.2269,VALID,-0.101885,VALID,17.9292,VALID,117,VALID,0
2000-07-16, 01:57:00,VALID,917.186,VALID,0,VALID,97.2015,VALID,-0.118866,VALID,17.9356,VALID,119,VALID,0
2000-07-16, 01:58:00,VALID,917.181,VALID,0,VALID,96.9993,VALID,-0.101885,VALID,17.9033,VALID,119,VALID,0
2000-07-16, 01:59:00,VALID,917.175,VALID,0,VALID,96.7984,VALID,-0.101885,VALID,17.8517,VALID,119,VALID,0
2000-07-16, 02:00:00,VALID,917.179,VALID,0,VALID,96.7984,VALID,-0.101885,VALID,17.8226,VALID,119,VALID,0
2000-07-16, 02:01:00,VALID,917.163,VALID,0,VALID,97.0425,VALID,-0.118866,VALID,17.7995,VALID,119,VALID,0
2000-07-16, 02:02:00,VALID,917.134,VALID,0,VALID,97.0857,VALID,-0.101885,VALID,17.7834,VALID,119,VALID,0
2000-07-16, 02:03:00,VALID,917.101,VALID,0,VALID,97.1048,VALID,-0.101885,VALID,17.7511,VALID,119,VALID,0
2000-07-16, 02:04:00,VALID,917.079,VALID,0,VALID,97.1735,VALID,-0.101885,VALID,17.7283,VALID,119,VALID,0
2000-07-16, 02:05:00,VALID,917.067,VALID,0,VALID,97.2193,VALID,-0.101885,VALID,17.7128,VALID,119,VALID,0
2000-07-16, 02:06:00,VALID,917.05,VALID,0,VALID,97.1023,VALID,-0.101885,VALID,17.6736,VALID,119,VALID,0
2000-07-16, 02:07:00,VALID,917.034,VALID,0,VALID,97.2917,VALID,-0.101885,VALID,17.6803,VALID,117,VALID,0
2000-07-16, 02:08:00,VALID,917.005,VALID,0,VALID,97.6046,VALID,-0.118866,VALID,17.716,VALID,105,VALID,0
2000-07-16, 02:09:00,VALID,916.985,VALID,0,VALID,97.7063,VALID,-0.118866,VALID,17.7382,VALID,83,VALID,0
2000-07-16, 02:10:00,VALID,916.948,VALID,0,VALID,97.4647,VALID,-0.101885,VALID,17.6807,VALID,82,VALID,0
2000-07-16, 02:11:00,VALID,916.914,VALID,0,VALID,97.5244,VALID,-0.0339617,VALID,17.6475,VALID,82,VALID,0
2000-07-16, 02:12:00,VALID,916.894,VALID,0,VALID,97.719,VALID,0.0679233,VALID,17.6358,VALID,82,VALID,0
2000-07-16, 02:13:00,VALID,916.881,VALID,0,VALID,98.0725,VALID,0.101885,VALID,17.6711,VALID,84,VALID,0
2000-07-16, 02:14:00,VALID,916.861,VALID,0,VALID,98.2518,VALID,0.0849042,VALID,17.7166,VALID,109,VALID,0
2000-07-16, 02:15:00,VALID,916.859,VALID,0,VALID,98.4642,VALID,0.101885,VALID,17.7685,VALID,109,VALID,0
2000-07-16, 02:16:00,VALID,916.844,VALID,0,VALID,98.557,VALID,0.101885,VALID,17.8167,VALID,109,VALID,0
2000-07-16, 02:17:00,VALID,916.821,VALID,0,VALID,98.5163,VALID,0.0849042,VALID,17.8526,VALID,109,VALID,0
2000-07-16, 02:18:00,VALID,916.8,VALID,0,VALID,98.5277,VALID,0.101885,VALID,17.8785,VALID,109,VALID,0
2000-07-16, 02:19:00,VALID,916.777,VALID,0,VALID,98.4413,VALID,0.101885,VALID,17.8877,VALID,109,VALID,0
2000-07-16, 02:20:00,VALID,916.759,VALID,0,VALID,98.3306,VALID,0.0849042,VALID,17.8849,VALID,109,VALID,0
2000-07-16, 02:21:00,VALID,916.744,VALID,0,VALID,98.2327,VALID,0.0849042,VALID,17.8619,VALID,109,VALID,0
2000-07-16, 02:22:00,VALID,916.749,VALID,0,VALID,98.0216,VALID,0.101885,VALID,17.804,VALID,97,VALID,0
2000-07-16, 02:23:00,VALID,916.754,VALID,0,VALID,98.1475,VALID,0.0679233,VALID,17.8268,VALID,82,VALID,0
2000-07-16, 02:24:00,VALID,916.745,VALID,0,VALID,98.2289,VALID,0.0849042,VALID,17.8291,VALID,80,VALID,0
2000-07-16, 02:25:00,VALID,916.729,VALID,0,VALID,98.2696,VALID,0.0849042,VALID,17.836,VALID,83,VALID,0
2000-07-16, 02:26:00,VALID,916.712,VALID,0,VALID,98.487,VALID,0.0679233,VALID,17.9078,VALID,64,VALID,0
2000-07-16, 02:27:00,VALID,916.696,VALID,0,VALID,98.2976,VALID,-0.0169808,VALID,17.8667,VALID,64,VALID,0
2000-07-16, 02:28:00,VALID,916.687,VALID,0,VALID,98.3421,VALID,-0.0339617,VALID,17.8667,VALID,64,VALID,0
2000-07-16, 02:29:00,VALID,916.687,VALID,0,VALID,98.3344,VALID,0,VALID,17.8861,VALID,74,VALID,0
2000-07-16, 02:30:00,VALID,916.691,VALID,0,VALID,98.2149,VALID,-0.0169808,VALID,17.8602,VALID,74,VALID,0
2000-07-16, 02:31:00,VALID,916.691,VALID,0,VALID,98.0852,VALID,-0.0169808,VALID,17.8281,VALID,74,VALID,0
2000-07-16, 02:32:00,VALID,916.678,VALID,0,VALID,97.9746,VALID,-0.0169808,VALID,17.7959,VALID,74,VALID,0
2000-07-16, 02:33:00,VALID,916.676,VALID,0,VALID,97.9123,VALID,0,VALID,17.7603,VALID,79,VALID,0
2000-07-16, 02:34:00,VALID,916.668,VALID,0,VALID,98.1361,VALID,0,VALID,17.7859,VALID,112,VALID,0
2000-07-16, 02:35:00,VALID,916.66,VALID,0,VALID,97.9784,VALID,-0.0339617,VALID,17.7375,VALID,119,VALID,0
2000-07-16, 02:36:00,VALID,916.655,VALID,0,VALID,98.0305,VALID,0,VALID,17.7308,VALID,119,VALID,0
2000-07-16, 02:37:00,VALID,916.649,VALID,0,VALID,97.6999,VALID,-0.0169808,VALID,17.6439,VALID,108,VALID,0
2000-07-16, 02:38:00,VALID,916.656,VALID,0,VALID,97.7699,VALID,-0.0339617,VALID,17.5984,VALID,100,VALID,0
2000-07-16, 02:39:00,VALID,916.646,VALID,0,VALID,97.7152,VALID,-0.0339617,VALID,17.5433,VALID,98,VALID,0
2000-07-16, 02:40:00,VALID,916.639,VALID,0,VALID,97.9797,VALID,-0.0509425,VALID,17.5631,VALID,91,VALID,0.341016
2000-07-16, 02:41:00,VALID,916.639,VALID,0,VALID,98.0636,VALID,0,VALID,17.5502,VALID,101,VALID,0.299609
2000-07-16, 02:42:00,VALID,916.623,VALID,0,VALID,98.089,VALID,0.0339617,VALID,17.5106,VALID,70,VALID,0.416266
2000-07-16, 02:43:00,VALID,916.617,VALID,0,VALID,98.2594,VALID,0.0679233,VALID,17.5362,VALID,68,VALID,0.147436
2000-07-16, 02:44:00,VALID,916.606,VALID,0,VALID,98.309,VALID,0.0339617,VALID,17.5235,VALID,86,VALID,0.134375
2000-07-16, 02:45:00,VALID,916.601,VALID,0,VALID,98.3268,VALID,0.0509425,VALID,17.5037,VALID,87,VALID,0.00240385
2000-07-16, 02:46:00,VALID,916.603,VALID,0,VALID,98.6714,VALID,0.0339617,VALID,17.5879,VALID,97,VALID,0.0886102
2000-07-16, 02:47:00,VALID,916.597,VALID,0,VALID,99.0135,VALID,0.0849042,VALID,17.7751,VALID,92,VALID,0.655428
2000-07-16, 02:48:00,VALID,916.608,VALID,0,VALID,99.0516,VALID,0.0509425,VALID,17.8559,VALID,99,VALID,0.720269
2000-07-16, 02:49:00,VALID,916.616,VALID,0,VALID,99.0135,VALID,0.0679233,VALID,17.8948,VALID,100,VALID,0.701823
2000-07-16, 02:50:00,VALID,916.596,VALID,0,VALID,98.9868,VALID,0.0849042,VALID,17.9629,VALID,97,VALID,0.541131
2000-07-16, 02:51:00,VALID,916.575,VALID,0,VALID,98.8596,VALID,0.0679233,VALID,17.956,VALID,104,VALID,0.866976
2000-07-16, 02:52:00,VALID,916.551,VALID,0,VALID,98.8227,VALID,0.0339617,VALID,17.991,VALID,103,VALID,0.802885
2000-07-16, 02:53:00,VALID,916.516,VALID,0,VALID,98.66,VALID,0.0679233,VALID,17.9977,VALID,107,VALID,0.602965
2000-07-16, 02:54:00,VALID,916.503,VALID,0,VALID,98.5176,VALID,0.0509425,VALID,17.9979,VALID,104,VALID,0.601362
2000-07-16, 02:55:00,VALID,916.5,VALID,0,VALID,98.365,VALID,0.0509425,VALID,18.0012,VALID,99,VALID,0.522991
2000-07-16, 02:56:00,VALID,916.489,VALID,0,VALID,98.1666,VALID,0.0509425,VALID,17.9855,VALID,85,VALID,0.349023
2000-07-16, 02:57:00,VALID,916.5,VALID,0,VALID,98.0382,VALID,-0.0339617,VALID,17.9802,VALID,56,VALID,0.720117
2000-07-16, 02:58:00,VALID,916.489,VALID,0,VALID,98.117,VALID,0,VALID,18.0122,VALID,54,VALID,0.673828
2000-07-16, 02:59:00,VALID,916.468,VALID,0,VALID,98.1933,VALID,0,VALID,18.051,VALID,64,VALID,0.773226
2000-07-16, 03:00:00,VALID,916.453,VALID,0,VALID,98.1068,VALID,-0.0509425,VALID,18.0607,VALID,69,VALID,0.818793
2000-07-16, 03:01:00,VALID,916.421,VALID,0,VALID,97.9809,VALID,-0.0339617,VALID,18.0634,VALID,73,VALID,1.12076
2000-07-16, 03:02:00,VALID,916.403,VALID,0,VALID,97.9695,VALID,-0.0169808,VALID,18.0964,VALID,78,VALID,0.792441
2000-07-16, 03:03:00,VALID,916.405,VALID,0,VALID,97.8334,VALID,-0.0509425,VALID,18.0994,VALID,78,VALID,0.724662
2000-07-16, 03:04:00,VALID,916.424,VALID,0,VALID,97.7508,VALID,-0.0339617,VALID,18.1031,VALID,79,VALID,0.569511
2000-07-16, 03:05:00,VALID,916.437,VALID,0,VALID,97.7266,VALID,-0.0339617,VALID,18.093,VALID,76,VALID,0.579728
2000-07-16, 03:06:00,VALID,916.444,VALID,0,VALID,97.7228,VALID,-0.0339617,VALID,18.08,VALID,85,VALID,0.753125
2000-07-16, 03:07:00,VALID,916.459,VALID,0,VALID,97.3591,VALID,-0.0509425,VALID,17.9991,VALID,78,VALID,0.581414
2000-07-16, 03:08:00,VALID,916.465,VALID,0,VALID,97.4062,VALID,-0.0339617,VALID,17.967,VALID,74,VALID,0.626002
2000-07-16, 03:09:00,VALID,916.467,VALID,0,VALID,97.7254,VALID,-0.0849042,VALID,17.9892,VALID,72,VALID,0.630859
2000-07-16, 03:10:00,VALID,916.475,VALID,0,VALID,97.6249,VALID,-0.0509425,VALID,17.9636,VALID,73,VALID,0.464316
2000-07-16, 03:11:00,VALID,916.478,VALID,0,VALID,97.6414,VALID,-0.0339617,VALID,17.9442,VALID,74,VALID,0.569679
2000-07-16, 03:12:00,VALID,916.489,VALID,0,VALID,97.7966,VALID,-0.0169808,VALID,17.9474,VALID,87,VALID,0.460938
2000-07-16, 03:13:00,VALID,916.506,VALID,0,VALID,98.1463,VALID,-0.0169808,VALID,18.0187,VALID,95,VALID,0.602734
2000-07-16, 03:14:00,VALID,916.508,VALID,0,VALID,98.1424,VALID,-0.0169808,VALID,18.0217,VALID,104,VALID,0.565625
2000-07-16, 03:15:00,VALID,916.529,VALID,0,VALID,98.1819,VALID,-0.0679233,VALID,18.0351,VALID,104,VALID,0.601362
2000-07-16, 03:16:00,VALID,916.524,VALID,0,VALID,98.2238,VALID,-0.0509425,VALID,18.0478,VALID,114,VALID,0.492388
2000-07-16, 03:17:00,VALID,916.517,VALID,0,VALID,98.2264,VALID,-0.0169808,VALID,18.0671,VALID,122,VALID,0.514286
2000-07-16, 03:18:00,VALID,916.512,VALID,0,VALID,98.2442,VALID,-0.0509425,VALID,18.083,VALID,121,VALID,0.489583
2000-07-16, 03:19:00,VALID,916.507,VALID,0,VALID,98.1424,VALID,-0.0679233,VALID,18.0798,VALID,121,VALID,0.350946
2000-07-16, 03:20:00,VALID,916.51,VALID,0,VALID,97.8958,VALID,-0.0339617,VALID,18.0482,VALID,121,VALID,0.101974
2000-07-16, 03:21:00,VALID,916.504,VALID,0,VALID,97.8487,VALID,-0.0169808,VALID,18.0219,VALID,121,VALID,0
2000-07-16, 03:22:00,VALID,916.512,VALID,0,VALID,97.9364,VALID,-0.0169808,VALID,18.0122,VALID,121,VALID,0
2000-07-16, 03:23:00,VALID,916.5,VALID,0,VALID,97.9034,VALID,-0.0169808,VALID,17.9928,VALID,121,VALID,0
2000-07-16, 03:24:00,VALID,916.499,VALID,0,VALID,97.6885,VALID,-0.0169808,VALID,17.9278,VALID,121,VALID,0
2000-07-16, 03:25:00,VALID,916.505,VALID,0,VALID,97.5626,VALID,-0.0509425,VALID,17.8731,VALID,118,VALID,0
2000-07-16, 03:26:00,VALID,916.518,VALID,0,VALID,97.5588,VALID,0.0169808,VALID,17.8307,VALID,116,VALID,0
2000-07-16, 03:27:00,VALID,916.516,VALID,0,VALID,97.7279,VALID,0.0339617,VALID,17.8335,VALID,116,VALID,0
2000-07-16, 03:28:00,VALID,916.51,VALID,0,VALID,97.5321,VALID,0.0509425,VALID,17.7459,VALID,116,VALID,0
2000-07-16, 03:29:00,VALID,916.5,VALID,0,VALID,97.9199,VALID,0.0679233,VALID,17.7685,VALID,113,VALID,0
2000-07-16, 03:30:00,VALID,916.496,VALID,0,VALID,97.9937,VALID,0.0679233,VALID,17.7493,VALID,110,VALID,0
2000-07-16, 03:31:00,VALID,916.482,VALID,0,VALID,98.0611,VALID,0.0679233,VALID,17.717,VALID,110,VALID,0
2000-07-16, 03:32:00,VALID,916.473,VALID,0,VALID,98.0267,VALID,0.0679233,VALID,17.6845,VALID,110,VALID,0
2000-07-16, 03:33:00,VALID,916.459,VALID,0,VALID,98.0789,VALID,0.0679233,VALID,17.6425,VALID,110,VALID,0
2000-07-16, 03:34:00,VALID,916.439,VALID,0,VALID,98.3243,VALID,0.0509425,VALID,17.6518,VALID,110,VALID,0
2000-07-16, 03:35:00,VALID,916.424,VALID,0,VALID,98.4209,VALID,0.0679233,VALID,17.6714,VALID,110,VALID,0
2000-07-16, 03:36:00,VALID,916.405,VALID,0,VALID,98.3624,VALID,0.0849042,VALID,17.6458,VALID,110,VALID,0
2000-07-16, 03:37:00,VALID,916.393,VALID,0,VALID,98.398,VALID,0.0339617,VALID,17.6432,VALID,110,VALID,0
2000-07-16, 03:38:00,VALID,916.381,VALID,0,VALID,98.4006,VALID,0.0849042,VALID,17.6266,VALID,110,VALID,0
2000-07-16, 03:39:00,VALID,916.366,VALID,0,VALID,98.3713,VALID,0.0679233,VALID,17.5881,VALID,110,VALID,0
2000-07-16, 03:40:00,VALID,916.358,VALID,0,VALID,98.3612,VALID,0.101885,VALID,17.5618,VALID,111,VALID,0
2000-07-16, 03:41:00,VALID,916.341,VALID,0,VALID,98.4235,VALID,0.0679233,VALID,17.5592,VALID,110,VALID,0
2000-07-16, 03:42:00,VALID,916.338,VALID,0,VALID,98.4909,VALID,-0.0169808,VALID,17.592,VALID,65,VALID,0